Temperature
1 1 1 1 2 2 2 2 2 2 2 2 2 2 2 2 2 2 2 2 2 2 2 2 2 2 1 2 2 2 2 2 2 2 2 2 2 2 2 3 3 3 3
1 1 1 1 1 1 1 1 2 2 2 2 2 2 1 1 1 1 1 1 1 1 1 1 1 1 1 1 1 1 2 2 1 1 2 2 2 2 2 2 2 2 3
0 0 1 1 1 1 1 1 1 1 1 1 1 1 1 1 1 1 1 1 1 1 1 1 1 1 1 1 1 1 1 1 1 1 1 1 1 2 2 2 2 2 2
-0 0 0 0 0 0 0 0 1 1 1 1 1 1 1 1 1 1 0 0 0 0 0 0 0 0 -0 0 0 0 1 1 1 1 1 1 1 1 1 1 1 2 2
-1 -0 -0 -0 -0 -0 -0 -0 0 0 0 0 0 0 0 0 0 0 -0 -0 -0 -0 -0 -0 -0 -0 -0 -0 -0 0 0 0 0 0 0 0 1 1 1 1 1 1 1
-1 -1 -1 -1 -1 -1 -1 -1 -1 -0 -0 -0 -0 -0 -0 -0 -0 -0 -1 -1 -1 -1 -1 -1 -1 -1 -1 -0 -0 -0 -0 -0 -0 -0 -0 -0 -0 0 0 0 0 0 1
-1 -1 -1 -1 -1 -1 -1 -1 -1 -1 -1 -1 -1 -1 -1 -1 -1 -1 -1 -1 -1 -1 -1 -1 -1 -1 -1 -1 -1 -1 -0 -0 -0 -0 -1 -1 -0 -0 -0 -0 -0 -0 -0
-1 -2 -2 -2 -2 -2 -2 -2 -2 -2 -1 -1 -1 -1 -1 -1 -1 -1 -1 -2 -2 -2 -2 -1 -1 -1 -1 -1 -1 -1 -1 -1 -1 -1 -1 -1 -1 -1 -1 -1 -0 -0 -0
-2 -2 -2 -2 -2 -2 -2 -2 -2 -2 -2 -2 -2 -2 -2 -2 -2 -2 -2 -2 -2 -2 -2 -2 -2 -2 -1 -2 -2 -1 -1 -1 -1 -1 -1 -1 -1 -1 -1 -1 -1 -1 -1
-2 -2 -2 -2 -3 -3 -3 -3 -3 -2 -2 -2 -2 -2 -2 -2 -2 -2 -2 -3 -3 -3 -3 -2 -2 -2 -2 -2 -2 -2 -2 -2 -2 -1 -1 -1 -1 -1 -1 -1 -1 -1 -2
-2 -2 -3 -3 -3 -3 -3 -3 -3 -3 -3 -3 -3 -3 -3 -3 -3 -3 -3 -3 -3 -3 -3 -2 -2 -2 -2 -2 -2 -2 -2 -2 -2 -2 -2 -2 -2 -2 -2 -2 -2 -2 -2
-3 -3 -3 -3 -3 -3 -3 -3 -3 -3 -3 -4 -4 -3 -3 -3 -3 -3 -3 -3 -3 -3 -3 -3 -3 -2 -2 -2 -2 -2 -2 -2 -2 -2 -2 -2 -2 -2 -2 -2 -2 -2 -2
-3 -3 -3 -3 -4 -4 -4 -4 -4 -4 -4 -4 -4 -4 -4 -4 -4 -4 -3 -3 -3 -3 -3 -3 -3 -3 -3 -2 -2 -2 -2 -3 -3 -3 -3 -3 -2 -2 -2 -2 -2 -2 -2
-4 -4 -4 -4 -4 -4 -4 -4 -4 -4 -4 -4 -4 -4 -4 -4 -4 -4 -4 -4 -3 -3 -3 -3 -3 -3 -3 -3 -3 -3 -3 -3 -3 -3 -3 -3 -3 -2 -2 -2 -2 -2 -2
-4 -4 -4 -4 -4 -4 -4 -4 -4 -4 -5 -5 -5 -5 -5 -5 -4 -4 -4 -4 -4 -4 -3 -3 -3 -3 -3 -3 -3 -3 -3 -3 -3 -3 -3 -3 -3 -3 -3 -3 -3 -3 -3
-4 -4 -4 -5 -5 -4 -4 -4 -4 -4 -4 -4 -5 -5 -4 -4 -4 -4 -4 -4 -4 -4 -3 -3 -4 -4 -4 -4 -4 -4 -4 -4 -3 -3 -3 -3 -3 -3 -3 -3 -3 -3 -3
-5 -5 -5 -5 -5 -5 -5 -5 -5 -5 -4 -4 -4 -4 -4 -4 -4 -4 -4 -4 -4 -4 -4 -4 -4 -4 -4 -4 -4 -4 -4 -4 -4 -3 -4 -4 -3 -3 -3 -3 -3 -3 -3
-5 -5 -5 -5 -5 -5 -5 -5 -5 -5 -5 -5 -4 -4 -4 -4 -4 -4 -4 -4 -4 -4 -4 -4 -4 -4 -4 -4 -4 -4 -4 -4 -4 -4 -4 -4 -4 -4 -4 -4 -4 -4 -4
-5 -5 -5 -5 -5 -5 -5 -5 -5 -5 -5 -5 -5 -4 -4 -4 -4 -4 -4 -4 -4 -4 -4 -4 -4 -4 -4 -4 -4 -4 -4 -4 -4 -4 -4 -4 -4 -4 -4 -4 -4 -4 -4
-5 -6 -5 -6 -6 -5 -5 -5 -5 -5 -5 -5 -5 -5 -5 -5 -5 -4 -4 -4 -4 -4 -4 -4 -4 -4 -4 -4 -4 -4 -4 -4 -4 -4 -4 -4 -4 -4 -4 -4 -4 -4 -4
-6 -6 -6 -6 -6 -6 -6 -6 -6 -5 -5 -5 -5 -5 -5 -5 -5 -5 -5 -5 -5 -4 -4 -4 -4 -4 -4 -4 -4 -4 -4 -4 -4 -4 -4 -4 -4 -4 -4 -4 -4 -4 -4
-6 -6 -6 -6 -6 -6 -6 -6 -6 -6 -5 -5 -5 -5 -5 -5 -5 -5 -5 -5 -5 -5 -5 -4 -4 -4 -4 -4 -4 -4 -4 -4 -4 -4 -4 -4 -4 -4 -4 -4 -4 -4 -4
-6 -6 -6 -6 -6 -6 -6 -6 -6 -6 -5 -5 -5 -5 -5 -5 -5 -5 -5 -5 -5 -5 -5 -5 -4 -4 -4 -4 -4 -4 -4 -4 -4 -4 -4 -4 -4 -4 -4 -4 -4 -4 -4
-6 -6 -6 -6 -6 -6 -6 -6 -6 -6 -6 -6 -6 -6 -5 -5 -5 -5 -5 -5 -5 -5 -5 -5 -4 -4 -4 -4 -4 -4 -4 -4 -4 -4 -4 -4 -4 -4 -4 -4 -4 -4 -4
-6 -6 -6 -6 -6 -6 -6 -6 -6 -6 -6 -6 -6 -6 -6 -6 -5 -5 -5 -5 -5 -5 -5 -5 -4 -4 -4 -4 -4 -4 -4 -4 -4 -4 -4 -4 -4 -4 -4 -4 -4 -4 -4
-6 -6 -6 -6 -6 -6 -6 -6 -6 -6 -6 -6 -6 -6 -6 -6 -6 -6 -5 -5 -5 -5 -5 -5 -4 -4 -4 -4 -4 -4 -4 -4 -4 -4 -4 -4 -4 -4 -4 -4 -4 -4 -4
Wind_Speed
5 5 5 5 5 5 5 6 5 5 5 5 5 5 5 5 5 5 6 6 6 6 6 6 6 6 5 5 5 6 6 6 8 7 6 7 8 8 8 8 8 8 7
5 5 5 5 5 5 5 5 5 5 5 5 5 5 5 5 5 5 6 6 6 6 6 6 6 5 6 6 5 6 6 6 7 8 7 6 8 8 8 8 7 7 7
5 5 5 5 5 5 5 5 5 5 5 5 5 5 5 5 5 5 6 6 6 6 6 6 6 6 6 5 6 5 5 5 6 6 6 6 6 6 7 7 7 6 7
5 5 5 5 5 5 5 4 5 5 5 5 5 5 5 5 5 5 5 5 5 5 6 6 6 6 6 6 5 5 5 5 5 5 5 5 5 6 5 5 5 5 6
5 4 4 4 4 4 4 5 5 5 5 5 5 5 4 4 4 4 4 5 5 5 5 5 5 5 6 6 5 5 5 4 4 4 4 5 5 4 4 4 5 6 6
4 4 4 4 4 4 4 5 5 5 5 5 4 4 4 3 4 4 4 5 5 5 5 5 5 5 5 6 7 6 6 5 5 4 4 5 6 5 4 4 5 5 5
4 4 3 3 4 4 4 4 5 5 5 5 4 4 5 4 4 3 4 4 4 4 4 4 4 4 4 5 5 5 5 6 6 6 6 6 6 5 5 5 5 5 6
4 3 3 3 3 4 4 4 4 4 4 4 5 5 5 4 4 4 4 4 4 4 4 4 4 4 4 5 4 4 5 4 5 5 5 6 5 5 5 6 5 5 5
4 3 3 3 3 4 4 4 4 4 4 4 5 5 5 5 4 4 4 3 3 4 4 4 4 4 4 5 4 4 5 4 4 4 4 4 5 5 5 4 4 3 4
4 3 3 3 3 3 4 4 4 4 4 4 5 5 5 5 5 4 4 3 3 3 3 3 4 4 4 4 4 4 4 4 3 3 3 3 3 4 5 4 4 3 3
4 3 3 3 3 3 3 3 4 4 4 4 5 5 4 5 5 5 5 3 3 3 3 3 3 3 4 5 4 3 4 4 3 3 3 3 3 3 3 3 3 3 3
3 3 3 3 3 3 3 3 3 3 3 4 4 5 4 4 4 4 5 5 4 3 3 2 2 3 4 4 3 3 3 3 2 2 2 2 3 3 3 3 3 2 2
2 2 3 3 3 3 3 3 3 3 3 3 3 4 4 4 4 5 5 5 5 3 3 3 3 3 3 3 3 3 2 1 1 1 2 3 3 3 3 2 3 2 3
2 3 2 2 2 3 2 2 2 2 3 3 3 4 4 4 4 4 3 3 4 3 3 2 2 2 2 2 2 2 2 2 2 2 2 2 2 2 2 2 2 2 2
2 2 2 2 2 2 2 3 3 3 3 4 4 3 4 4 5 7 5 4 3 3 2 2 1 1 2 2 1 2 2 2 2 2 2 2 2 2 2 2 2 1 1
2 2 2 2 2 1 2 3 3 3 5 6 6 5 4 5 7 7 6 6 6 4 2 1 1 1 1 2 2 2 2 2 2 2 2 1 1 1 2 2 2 2 2
2 2 2 1 1 1 2 2 3 4 5 5 6 6 5 6 6 6 6 5 4 3 1 1 1 1 1 2 2 2 2 2 2 2 1 1 1 1 1 1 2 2 2
2 2 2 2 1 1 2 2 2 3 4 4 5 6 6 6 6 6 5 4 2 2 1 1 1 1 2 2 2 2 2 2 2 1 1 1 1 1 1 1 1 2 1
1 1 1 1 1 1 1 2 2 3 3 3 4 4 6 6 5 5 5 2 2 2 2 2 2 2 2 2 2 2 2 2 2 1 1 1 1 1 1 1 1 2 1
1 1 1 1 1 1 1 1 2 2 2 3 3 4 5 4 3 4 4 3 3 3 3 2 2 2 2 2 2 2 2 2 2 1 1 1 1 1 1 1 1 1 1
0 0 1 1 1 1 1 1 2 2 2 3 3 4 5 3 3 3 3 3 3 3 3 3 2 2 2 2 2 2 2 2 1 1 1 1 1 1 1 1 1 1 1
0 0 1 1 1 1 1 1 1 2 2 2 3 3 5 4 3 3 3 4 4 4 3 3 2 2 2 2 2 2 2 2 2 1 1 1 1 1 1 1 1 1 1
1 0 0 1 1 1 1 1 1 2 2 2 2 3 3 3 3 4 4 4 4 4 4 3 3 3 3 3 2 2 2 2 1 1 1 1 1 1 1 1 1 1 1
1 1 1 0 1 1 1 1 1 2 2 2 2 2 3 3 3 4 4 4 4 4 4 3 3 4 4 4 3 2 2 1 1 1 1 1 1 1 1 1 1 1 1
1 1 1 0 0 1 1 1 2 2 2 2 2 2 3 3 3 3 4 4 4 4 5 4 3 4 4 5 4 3 3 2 2 1 0 0 1 1 1 1 1 1 1
1 1 1 0 0 0 1 1 1 2 2 2 2 2 2 2 3 3 3 4 4 4 4 4 5 5 5 4 4 5 4 3 2 1 1 1 1 1 1 0 1 1 1
Wind_Direction
297 291 287 285 284 284 282 283 283 280 277 271 265 266 268 267 261 256 256 260 259 261 259 254 258 264 265 265 263 264 261 257 262 275 277 279 283 288 289 288 287 282 280
300 293 289 288 287 286 288 289 290 287 285 277 268 265 266 266 262 258 257 258 255 258 262 261 263 264 263 263 261 263 261 255 256 269 277 280 282 285 289 290 292 286 285
303 297 294 293 293 293 296 298 295 290 288 284 273 266 265 264 261 260 259 261 261 259 261 260 264 265 265 268 266 263 263 261 256 261 274 283 287 288 293 292 294 293 291
305 302 302 305 304 300 301 302 299 294 290 288 286 273 264 261 259 261 264 264 264 265 264 262 261 261 267 272 273 271 269 266 259 258 268 279 289 293 290 292 297 300 297
311 307 305 307 306 306 309 308 305 301 298 293 295 287 270 262 260 265 268 266 267 270 270 267 265 267 275 276 275 276 273 268 264 264 271 284 287 290 288 290 295 301 299
308 306 309 311 313 313 312 311 310 308 307 303 296 293 283 271 277 271 273 269 269 267 271 275 275 273 278 276 278 278 277 266 260 266 272 273 281 287 289 289 296 303 301
309 311 314 316 317 315 314 314 311 310 313 312 304 300 292 287 287 276 287 279 272 264 264 271 277 281 282 272 276 279 280 283 276 265 264 269 280 285 287 285 287 291 293
307 310 313 315 313 314 314 314 313 313 315 316 315 309 301 297 300 289 291 276 274 277 278 275 275 276 277 280 282 286 283 282 283 274 269 273 282 284 281 283 290 297 300
302 306 310 310 309 313 315 315 315 315 315 316 313 315 312 309 312 303 294 281 275 278 278 278 276 276 285 292 284 283 287 294 303 300 297 297 300 300 295 289 289 286 296
303 303 303 301 299 302 305 309 312 312 312 316 318 321 318 312 317 318 308 282 278 278 279 278 278 282 291 292 279 276 279 294 302 306 307 311 309 307 299 282 279 281 289
307 306 305 300 299 299 303 306 312 315 316 320 320 323 322 318 316 322 321 303 289 283 282 284 287 298 294 294 296 292 296 299 295 301 309 317 322 315 310 306 298 284 281
305 304 305 307 307 305 306 309 314 314 314 319 320 325 328 325 323 323 328 326 317 296 292 300 305 310 305 309 315 331 330 319 306 314 319 319 318 313 316 321 327 330 315
302 303 306 309 310 310 309 311 317 316 310 315 320 324 327 328 328 331 328 328 323 311 304 315 320 323 321 325 347 351 336 325 313 307 311 315 316 316 325 334 344 358 353
295 304 308 310 316 321 318 317 317 316 312 314 318 320 323 324 326 327 323 324 329 325 316 323 334 346 341 336 344 345 335 323 310 297 301 310 321 327 331 332 335 348 354
291 300 307 307 310 321 328 329 318 315 310 310 312 316 316 316 327 336 335 329 328 326 323 320 338 348 355 354 349 340 333 327 319 308 307 315 330 340 343 345 350 4 358
282 299 301 299 308 322 333 344 354 336 341 337 330 328 324 326 332 338 342 341 339 337 331 321 329 330 335 334 329 329 331 328 322 318 320 327 332 339 350 359 7 12 2
272 287 292 292 304 315 321 330 341 353 357 353 351 350 348 346 346 345 345 343 345 348 347 338 333 327 326 322 321 321 319 322 321 320 322 330 336 342 349 357 4 5 355
276 286 293 293 298 305 314 322 328 334 339 345 350 355 1 360 356 355 355 354 358 3 350 334 319 315 313 311 313 319 320 322 326 332 338 343 344 347 355 358 360 350 343
273 286 300 305 308 312 321 326 332 333 333 334 341 355 4 360 2 9 7 3 348 342 339 327 313 302 298 301 303 307 308 308 315 324 334 345 346 349 353 352 350 347 338
268 310 321 308 312 322 331 333 336 338 339 339 347 351 349 351 3 2 2 359 353 346 343 338 322 308 297 294 297 304 309 312 316 325 335 342 344 334 329 330 329 326 333
265 299 331 337 340 335 333 333 333 334 339 342 344 346 350 349 348 349 352 355 353 347 343 342 335 320 311 305 301 307 314 315 319 322 330 335 330 329 333 334 333 329 329
198 272 326 336 344 344 342 337 333 335 341 346 344 349 358 2 357 355 354 352 350 347 344 341 338 332 324 316 310 307 309 313 316 321 326 324 328 332 334 342 337 326 320
171 139 29 359 9 6 1 356 350 349 348 349 347 348 355 0 358 355 352 351 352 353 351 352 349 346 343 338 327 308 294 295 299 290 288 303 317 314 304 293 288 287 287
161 146 128 65 29 23 10 5 1 358 356 351 349 351 355 353 352 351 350 350 354 356 357 357 353 350 351 352 344 334 328 317 310 285 262 229 257 273 284 280 276 271 268
150 139 131 99 31 22 16 7 3 2 1 354 349 350 352 351 349 349 349 352 355 357 356 356 359 360 -0 356 352 352 355 357 352 356 115 175 206 246 253 266 255 266 257
144 127 119 112 42 2 3 354 353 355 352 348 343 344 345 346 345 347 349 355 356 353 353 357 360 360 357 1 4 3 6 16 21 34 108 139 175 204 228 223 221 226 194
Height
1449 1448 1447 1446 1445 1444 1443 1442 1441 1440 1438 1437 1437 1436 1436 1435 1435 1435 1434 1434 1433 1432 1432 1431 1431 1431 1430 1430 1429 1429 1428 1427 1425 1422 1423 1422 1420 1418 1417 1415 1414 1413 1411
1446 1445 1444 1443 1441 1440 1439 1438 1437 1435 1435 1434 1433 1432 1431 1431 1430 1430 1429 1429 1428 1427 1427 1427 1426 1426 1425 1425 1424 1423 1422 1422 1421 1419 1418 1417 1416 1415 1413 1411 1410 1408 1407
1443 1442 1441 1439 1438 1437 1435 1434 1433 1432 1431 1430 1429 1428 1427 1426 1426 1425 1425 1424 1424 1423 1423 1422 1422 1421 1420 1420 1419 1418 1418 1417 1417 1415 1413 1413 1412 1411 1409 1408 1406 1405 1403
1440 1439 1437 1436 1435 1434 1432 1431 1430 1428 1427 1426 1425 1424 1423 1422 1421 1421 1420 1420 1419 1419 1419 1418 1417 1417 1417 1416 1415 1415 1414 1413 1413 1412 1411 1410 1409 1407 1406 1404 1402 1401 1400
1437 1436 1434 1433 1432 1430 1429 1428 1426 1425 1423 1422 1421 1420 1419 1418 1417 1416 1416 1416 1415 1415 1414 1414 1413 1413 1413 1412 1412 1411 1410 1409 1409 1408 1407 1406 1405 1404 1403 1401 1400 1398 1396
1435 1433 1432 1430 1429 1427 1426 1424 1423 1421 1420 1419 1417 1416 1415 1414 1413 1413 1413 1412 1411 1411 1410 1410 1409 1409 1409 1409 1408 1408 1407 1407 1406 1405 1404 1403 1402 1401 1400 1399 1398 1395 1393
1432 1430 1429 1427 1426 1424 1423 1421 1420 1418 1417 1415 1414 1413 1412 1411 1410 1409 1409 1409 1408 1407 1407 1406 1405 1405 1405 1405 1405 1404 1404 1403 1403 1403 1401 1400 1399 1398 1398 1396 1395 1394 1392
1430 1428 1427 1425 1423 1422 1420 1419 1417 1416 1414 1413 1411 1410 1409 1407 1407 1406 1406 1405 1405 1404 1403 1403 1402 1402 1402 1402 1401 1400 1400 1399 1399 1399 1398 1397 1396 1396 1395 1394 1392 1391 1390
1428 1426 1424 1423 1421 1419 1418 1416 1415 1414 1412 1411 1409 1407 1406 1404 1404 1403 1403 1402 1401 1400 1400 1400 1399 1399 1398 1398 1398 1397 1396 1396 1395 1395 1394 1394 1393 1392 1392 1391 1390 1389 1387
1425 1423 1422 1420 1418 1417 1416 1414 1413 1411 1410 1408 1406 1405 1403 1402 1401 1400 1400 1399 1398 1397 1397 1397 1396 1396 1395 1395 1395 1394 1393 1393 1392 1391 1391 1390 1390 1389 1389 1389 1388 1387 1386
1423 1421 1420 1418 1417 1415 1414 1412 1410 1409 1407 1406 1404 1403 1401 1400 1399 1398 1398 1397 1396 1395 1394 1393 1393 1393 1392 1392 1392 1391 1391 1390 1390 1389 1389 1388 1387 1387 1386 1386 1386 1385 1385
1421 1419 1417 1416 1415 1413 1412 1410 1409 1407 1405 1404 1402 1401 1400 1399 1397 1396 1396 1395 1394 1393 1392 1391 1391 1391 1390 1390 1389 1389 1389 1388 1388 1387 1387 1386 1386 1385 1385 1384 1384 1383 1383
1418 1417 1415 1414 1412 1411 1410 1408 1407 1405 1404 1402 1401 1399 1398 1397 1396 1395 1394 1393 1392 1391 1390 1389 1389 1389 1388 1388 1387 1387 1387 1387 1386 1386 1385 1385 1385 1384 1384 1383 1382 1382 1381
1416 1415 1413 1411 1410 1409 1408 1406 1405 1403 1402 1401 1399 1398 1396 1395 1395 1393 1392 1391 1390 1389 1389 1388 1388 1387 1387 1386 1386 1386 1385 1385 1385 1385 1384 1384 1384 1383 1382 1382 1381 1380 1380
1414 1413 1411 1410 1408 1407 1406 1405 1403 1402 1401 1400 1398 1397 1395 1394 1393 1392 1391 1390 1389 1388 1387 1387 1386 1386 1386 1385 1385 1385 1385 1384 1384 1384 1383 1383 1382 1382 1381 1381 1380 1380 1380
1412 1411 1410 1408 1407 1406 1404 1403 1402 1401 1400 1398 1397 1396 1394 1393 1392 1391 1390 1389 1388 1387 1386 1385 1385 1385 1385 1384 1384 1384 1383 1383 1383 1382 1382 1382 1381 1381 1381 1381 1380 1380 1379
1411 1409 1408 1407 1406 1405 1403 1402 1400 1400 1399 1397 1396 1394 1393 1392 1391 1389 1388 1387 1386 1386 1385 1384 1384 1384 1384 1384 1383 1383 1382 1382 1382 1382 1381 1381 1381 1381 1381 1380 1380 1380 1379
1409 1408 1407 1406 1405 1404 1403 1401 1400 1398 1397 1396 1395 1394 1392 1391 1390 1388 1387 1386 1385 1385 1384 1384 1383 1383 1383 1383 1383 1382 1382 1382 1381 1381 1381 1381 1381 1381 1380 1380 1380 1380 1379
1407 1406 1406 1405 1404 1403 1402 1401 1399 1398 1397 1396 1394 1393 1392 1391 1389 1388 1387 1386 1385 1384 1383 1383 1383 1383 1382 1382 1382 1382 1381 1381 1381 1381 1381 1381 1381 1380 1380 1380 1380 1379 1379
1406 1405 1405 1404 1403 1402 1401 1400 1399 1398 1397 1395 1394 1392 1391 1390 1389 1388 1387 1386 1385 1384 1383 1382 1382 1382 1382 1381 1381 1381 1381 1381 1381 1381 1380 1380 1380 1380 1380 1379 1379 1379 1379
1405 1404 1404 1403 1402 1401 1400 1399 1398 1397 1396 1395 1394 1393 1392 1391 1389 1388 1387 1386 1385 1384 1383 1382 1381 1381 1381 1381 1381 1381 1381 1380 1380 1380 1380 1380 1380 1380 1379 1379 1379 1378 1378
1404 1404 1403 1402 1402 1401 1400 1399 1398 1397 1396 1395 1394 1394 1393 1391 1390 1389 1388 1387 1385 1384 1383 1383 1382 1381 1381 1381 1380 1380 1380 1380 1380 1379 1379 1379 1379 1379 1379 1378 1378 1378 1377
1404 1403 1403 1402 1401 1401 1400 1399 1398 1397 1396 1396 1395 1394 1393 1392 1391 1389 1388 1387 1386 1385 1384 1383 1383 1382 1381 1381 1380 1380 1380 1379 1379 1379 1379 1378 1378 1378 1378 1378 1377 1377 1377
1403 1403 1402 1402 1401 1401 1400 1399 1398 1398 1397 1396 1395 1394 1393 1392 1391 1390 1389 1388 1387 1386 1385 1384 1383 1382 1381 1380 1380 1380 1380 1380 1379 1379 1378 1378 1378 1378 1378 1377 1377 1377 1376
1402 1402 1402 1401 1401 1400 1400 1399 1399 1398 1397 1396 1395 1395 1394 1393 1392 1391 1390 1389 1388 1387 1386 1385 1384 1383 1382 1381 1381 1380 1380 1379 1379 1378 1378 1378 1378 1378 1377 1377 1377 1376 1376
1401 1401 1401 1401 1401 1400 1400 1399 1398 1398 1397 1397 1396 1395 1394 1393 1392 1392 1390 1389 1388 1387 1387 1386 1385 1384 1383 1382 1381 1381 1380 1379 1379 1378 1378 1378 1377 1377 1377 1377 1377 1377 1376